Location: Unspecified
(0.0000°N, 0.0000°E)
Time: 19:49:26
(UTC+00:00)

FENGYUN 1C DEB - Visible Passes

Search period start: 14 January 2025 00:00
Search period end: 24 January 2025 00:00
Orbit: 821 x 1025 km, 98.2° (Epoch: 05 May)

Date Brightness Start Highest point End Pass type
(mag) Time Alt. Az. Time Alt. Az. Time Alt. Az.
14 Jan ? 03:44:45 15° SSW 03:44:45 15° SSW 03:45:39 10° SSW visible
15 Jan ? 03:52:04 12° SSW 03:52:04 12° SSW 03:52:33 10° SSW visible
16 Jan ? 03:59:22 10° SSW 03:59:22 10° SSW 03:59:25 10° SSW visible
